Regional Weather Roundup
Issued by NWS

Home | Current Version | Previous Version | Graphics & Text | Print | Product List | Glossary On
Versions: 1 2 3 4 5 6 7 8 9 10 11 12 13 14 15 16 17 18 19 20 21 22 23 24 25 26 27 28 29 30 31 32 33 34 35 36 37 38 39 40 41 42 43 44 45 46 47 48 49 50
396
ASUS43 KMPX 040501
RWRMN
WEATHER ROUNDUP FOR MINNESOTA
NATIONAL WEATHER SERVICE TWIN CITIES/CHANHASSEN MN
1200 AM CDT WED MAY 04 2016


NOTE: "FAIR" INDICATES FEW OR NO CLOUDS BELOW 12,000 FEET WITH NO
SIGNIFICANT WEATHER AND/OR OBSTRUCTIONS TO VISIBILITY. N/A MEANS
CURRENT SKY AND/OR WEATHER CONDITIONS ARE NOT AVAILABLE.

MNZ060>063-068>070-040600-
   Twin Cities Metro

CITY           SKY/WX    TMP DP  RH WIND       PRES   REMARKS
TWIN CITIES    CLEAR     58  29  33 N12       29.81R
ST PAUL        CLEAR     57  31  37 N10       29.81R
CRYSTAL        PTCLDY    57  30  35 N8        29.81R
BLAINE         PTCLDY    55  32  41 N12       29.82R
EDEN PRAIRIE   CLEAR     57  28  33 N8        29.80R
SOUTH ST PAUL  CLEAR     58  29  33 N12G17    29.79R
LAKE ELMO      FAIR      55  32  41 N7        29.81R
$$
MNZ001>005-007-008-013>017-022>024-027-028-040600-
   Northwest Minnesota

CITY           SKY/WX    TMP DP  RH WIND       PRES   REMARKS
BEMIDJI        CLEAR     47  33  57 N6        29.94R
HALLOCK        CLEAR     45  32  61 N8        30.02R
ROSEAU         CLEAR     45  36  70 N9        29.99S
WARROAD        CLEAR     45  37  76 NW7       29.99S
THIEF RVR FALL CLEAR     46  34  61 N10       30.00S
CROOKSTON      CLEAR     48  34  57 N9        30.00R
FOSSTON        CLEAR     43  34  70 N8        29.98R
DETROIT LAKES  CLEAR     46  34  61 NW7       29.96R
MOORHEAD       CLEAR     50  27  40 N14       29.98R
PARK RAPIDS    CLEAR     52  32  46 N9        29.92R
MAHNOMEN       FAIR      48  35  60 N13       29.96R
$$
MNZ006-009>011-018-025>026-040600-
   North Central Minnesota

CITY           SKY/WX    TMP DP  RH WIND       PRES   REMARKS
BAUDETTE       CLEAR     45  32  60 N7        29.96R
FLAG ISLAND    PTCLDY    48  37  66 NW10      29.97R
INTL FALLS     CLEAR     33  30  88 NW3       29.93S
WASKISH        CLEAR     45  34  65 N5        29.96R
BIG FORK       CLEAR     45  30  57 N3        29.93R
LONGVILLE      CLEAR     50  34  53 N3        29.92R
GRAND RAPIDS   CLEAR     46  28  49 N6        29.92S
CRANE LAKE     CLEAR     34  30  86 CALM      29.93R
ORR            CLEAR     39  28  65 CALM      29.90R
COOK           CLEAR     39  30  70 NW3       29.91S
WALKER         FAIR      49  33  54 N7        29.93R
$$
MNZ012-019>021-037-040600-
   Northeast Minnesota

CITY           SKY/WX    TMP DP  RH WIND       PRES   REMARKS
DULUTH         CLEAR     47  32  56 N10       29.87R
ELY            CLEAR     45  30  57 N6        29.88S
HIBBING        CLEAR     43  30  60 N8        29.90R
EVELETH        CLEAR     45  30  57 N6        29.90S
DULUTH HARBOR  CLEAR     46  37  71 NE10      29.88R
TWO HARBORS    CLEAR     50  36  57 N5        29.85R
SILVER BAY     CLEAR     46  30  53 NW6       29.84S
GRAND MARAIS     N/A     47  32  56 NW6       29.82S
G MARAIS ARPRT PTCLDY    39  28  65 NW7       29.81S
$$
MNZ029>031-032-039>041-046>048-054>057-064-040600-
   West Central Minnesota

CITY           SKY/WX    TMP DP  RH WIND       PRES   REMARKS
FERGUS FALLS   CLEAR     52  32  46 N7        29.93R
WHEATON        CLEAR     52  34  50 NW9       29.97R
MORRIS         CLEAR     52  30  43 N10       29.92R
ALEXANDRIA     CLEAR     52  31  44 N12       29.92R
ELBOW LAKE     FAIR      51  33  50 N9        29.94R
WADENA         CLEAR     48  32  53 N6        29.92R
GLENWOOD       CLEAR     48  30  49 N9        29.91R
APPLETON       CLEAR     54  28  37 N12       29.91R
BENSON         CLEAR     46  28  49 N8        29.91R
ORTONVILLE     CLEAR     52  28  40 N13       29.93R
MADISON        CLEAR     52  28  40 N13       29.92R
WILLMAR        FAIR      52  32  46 N10       29.90R
$$
MNZ033>034-036-042>043-049>051-058-059-040600-
   Central Minnesota

CITY           SKY/WX    TMP DP  RH WIND       PRES   REMARKS
ST CLOUD       CLEAR     51  31  46 N9        29.86R
SAUK CENTRE    FAIR      50  32  50 N8        29.90R
PAYNESVILLE    CLEAR     52  28  40 N8        29.88R
AITKIN         CLEAR     52  28  40 N8        29.89R
PINE RIVER     CLEAR     52  36  54 N9        29.95R
BRAINERD       CLEAR     52  32  46 NE12      29.90R
STAPLES        CLEAR     50  30  46 N9        29.91R
LONG PRAIRIE   FAIR      50  32  50 NW8       29.90R
LITTLE FALLS   PTCLDY    52  32  46 N6        29.89R
LITCHFIELD     CLEAR     55  30  38 N9        29.86R
BUFFALO        CLEAR     55  30  39 N8        29.85R
MAPLE LAKE     CLEAR     55  34  45 N10       29.86R
HUTCHINSON     CLEAR     55  32  41 N14       29.86R
$$
MNZ037-044-045-052-053-040600-
   East Central Minnesota

CITY           SKY/WX    TMP DP  RH WIND       PRES   REMARKS
PRINCETON      CLEAR     54  34  47 N8        29.85R
MORA           CLEAR     52  32  46 N5        29.87R
CAMBRIDGE      PTCLDY    57  37  47 N10G17    29.82R
RUSH CITY      MOCLDY    53  34  48 N12G17    29.85R
MOOSE LAKE     PTCLDY    48  32  53 N9        29.86R
HINCKLEY       CLOUDY    52  32  46 N15G22    29.86R
CLOQUET        CLEAR     48  28  46 N7        29.88R
MCGREGOR       CLEAR     50  32  50 N7        29.90R
$$
MNZ071>073-080-081-089-090-097-098-040600-
   Southwest Minnesota

CITY           SKY/WX    TMP DP  RH WIND       PRES   REMARKS
MONTEVIDEO     CLEAR     54  30  40 NE14G20   29.92R
GRANITE FALLS  CLEAR     55  32  41 N15       29.90R
CANBY          CLEAR     50  35  55 W8        29.93R
MARSHALL       CLEAR     52  29  41 N13       29.90R
REDWOOD FALLS  CLEAR     55  27  34 N10       29.86R
OLIVIA         CLEAR     52  30  43 N9        29.86S
PIPESTONE      CLEAR     54  27  35 N9        29.90R
WINDOM         CLEAR     52  28  40 NW13      29.85R
WORTHINGTON    CLEAR     51  34  52 N16       29.87R
JACKSON        CLEAR     54  28  37 N12G17    29.85R
TRACY          CLEAR     53  31  43 N13       29.88R
SLAYTON        CLEAR     53  30  41 NW15G22   29.89R
$$
MNZ065>067-074>077-082>085-091>093-040600-
   South Central Minnesota

CITY           SKY/WX    TMP DP  RH WIND       PRES   REMARKS
MANKATO        CLEAR     55  27  33 N15       29.81R
NEW ULM        CLEAR     55  27  33 N13       29.83R
ST JAMES       CLEAR     48  27  43 NW13      29.84R
FAIRMONT       CLEAR     55  30  38 NW14      29.81R
GLENCOE        CLEAR     54  33  45 N10       29.83R
FARIBAULT      CLEAR     57  28  33 NW10      29.79R
OWATONNA       CLEAR     54  27  35 N12       29.78R
WASECA         CLEAR     54  30  40 N15       29.79R
ALBERT LEA     CLEAR     55  28  35 N12       29.76R
$$
MNZ078>079-086>088-094>096-040600-
   Southeast Minnesota

CITY           SKY/WX    TMP DP  RH WIND       PRES   REMARKS
ROCHESTER      CLEAR     53  39  59 N12       29.76R
RED WING       CLEAR     55  30  38 NE5       29.77R
STANTON        CLEAR     55  30  37 N9        29.78R
DODGE CENTER   CLEAR     52  30  43 N10       29.77R
WINONA         MOCLDY    54  43  66 CALM      29.75R
AUSTIN         CLEAR     54  32  43 N12G18    29.75R
PRESTON        CLEAR     52  42  68 NE10      29.74R
$$
ABBREVIATIONS USED IN REMARKS
   TC - TEMPERATURES IN CELSIUS
  WCI - WIND CHILL INDEX
   HX - HEAT INDEX
  VSB - VISIBILITY
$$




USA.gov is the U.S. government's official web portal to all federal, state and local government web resources and services.